Flight Information

DEPARTURE
MISSOULA, MT
Elevation:
3205
Runways:
12/30 - 9501x150 - ASPH-G
8/26 - 4612x75 - ASPH-F
ATIS:
126.65
Ground:
121.9
Tower:
MISSOULA TOWER 118.4
DESTINATION
,
Elevation:
TPA:
1000 (est.)


6371.1 NM72° True-18° Var54° HDG

Flight Plan:
(click to file on line)

1. Type
2. Aircraft Identification
3. Aircraft Type / Special Equipment
4. True Airspeed
kts
5. Departure Airport
(ICAO code)
6. Arriving Airport
(ICAO code)
7. Cruising Altitude
ft
8. Alternate Airport
(ICAO code)
9. Route of Flight
10. Remarks


00:00:00 Departure ATIS: Destination ATIS:

Clearance Limit:
Route:
Altitude: Expect in minutes
Frequency:
Transponder: (7500 Hijack / 7600 Lost Comms / 7700 Emergency)


KMSO 282253Z 00000KT 10SM CLR M04/M10 A3041 RMK AO2 SLP356 T10441100
Time: 2022-01-28T22:53:00Z
1643411677
Winds: calm
Visibility: 10.0 sm
Clouds (AGL): CLR
Temperature: -4.4 C
Dew Point: -10.0 C
Pressure: 30.410433 in Hgbr


Notes:

Data extracted from FAA Digital Chart Supplement. Effective: 0901Z Thursday, DEC 2, 2021 to 0901Z Thursday, JAN 27, 2022
Current ATIS data is provided courtisy of PilotEdge.